Orbital Elements at Epoch 2459000.5 (2020-May-31.0) TDB
Reference: JPL 12 (heliocentric ecliptic J2000)
Element | Value | Uncertainty (1-sigma) | Units |
e | .2225588352287726 | 1.1533e-07 | |
a | 2.519406753767551 | 1.0029e-08 | au |
q | 1.958690521181542 | 2.8921e-07 | au |
i | 14.0850044078396 | 1.1417e-05 | deg |
node | 96.66745584028332 | 1.6648e-05 | deg |
peri | 19.34250066454519 | 2.2313e-05 | deg |
M | 121.2434531933238 | 1.1389e-05 | deg |
tp | 2458508.571870473199 (2019-Jan-25.07187047) | 4.5306e-05 | TDB |
period | 1460.64898322609 4.00 | 8.7216e-06 2.388e-08 | d yr |
n | .2464657861910664 | 1.4717e-09 | deg/d |
Q | 3.08012298635356 | 1.2261e-08 | au |
|
| | Orbit Determination Parameters
Additional Information
|